Location: Eymir
(36.7333°N, 29.7833°E)
Time: 18:10:53
(UTC+00:00)

Cosmos 2278 Rocket - Pass Details

Date: 14 January 2026
Orbit: 839 x 846 km, 71.0° (Epoch: 17 February)

Event Time Altitude Azimuth Distance (km) Brightness Sun altitude
Rises 03:24:52 0° 193° (SSW) 3,374 5.3 -21.3°
Reaches altitude 10° 03:27:18 10° 190° (S) 2,444 4.6 -20.8°
Maximum altitude 03:32:52 68° 109° (ESE) 901 2.5 -19.7°
Drops below altitude 10° 03:38:28 10° 27° (NNE) 2,462 4.8 -18.6°
Sets 03:40:56 0° 25° (NNE) 3,401 5.5 -18.1°
